Location: Maiden
(35.5760°N, 81.2120°W)
Time: 22:17:49
(UTC-04:00)

A-11 Canister half - Pass Details

Date: 12 August 2020
Orbit: 1514 x 1686 km, 47.2° (Epoch: 26 September)

Event Time Altitude Azimuth Distance (km) Brightness Sun altitude
Rises 22:04:49 0° 293° (WNW) 4,800 13.0 -20.3°
Reaches altitude 10° 22:08:07 10° 300° (WNW) 3,838 12.3 -20.8°
Maximum altitude 22:17:27 45° 11° (N) 2,141 9.9 -22.3°
Enters shadow 22:25:56 14° 79° (ENE) 3,635 10.6 -23.7°
